Preview of NWS' New Version of Forecast
This preview is not operational and should not be used for support decisions.

Regional Weather Roundup (RWR)

Issued by National Weather Service (NWS)

                            
000
ASUS44 KMEG 251310
RWRTN 
TENNESSEE HOURLY STATE WEATHER ROUNDUP
NATIONAL WEATHER SERVICE MEMPHIS TN
800 AM CDT SUN AUG 25 2019

TNZ002-004-019-021-049-052-054-088>092-251400-
WEST TENNESSEE
  
CITY           SKY/WX    TMP DP  RH WIND       PRES   REMARKS
MEMPHIS INTL   CLOUDY    76  74  93 E3        29.97R                  
NWS MEMPHIS      N/A     74 N/A N/A MISG        N/A                   
JACKSON        FAIR      74  73  97 E5        29.99S                  
DYERSBURG      FAIR      72  70  93 E3        29.98S                  
SOMERVILLE     SUNNY     73  72  94 CALM      29.97R                  
COVINGTON      MOSUNNY   73  73 100 CALM      29.96F                  
UNION CITY     MOSUNNY   72  66  83 E5        29.97S                  
BOLIVAR        SUNNY     73  72  94 CALM      29.97S                  
PARIS          CLOUDY    72  66  83 NE5       30.00S                  
HUNTINGDON     MOSUNNY   72  68  88 E3        29.99F                  
LEXINGTON      MOSUNNY   72  70  94 CALM      29.99S                  
SELMER         PTSUNNY   73  72  94 E7        29.98F FOG              
SAVANNAH       MOSUNNY   73  73 100 CALM      29.99S                  
$$

TNZ008-025-027-028-033-062-065-066-251400-
NORTH MIDDLE TENNESSEE
  
CITY           SKY/WX    TMP DP  RH WIND       PRES   REMARKS
NASHVILLE      PTSUNNY   75  68  78 CALM      30.03R                  
DICKSON        PTSUNNY   72  68  88 VRB3      30.01S                  
PORTLAND       PTSUNNY   68  64  88 CALM      30.03S                  
CLARKSVILLE    FAIR      69  62  78 E6        30.02R                  
LEBANON        CLOUDY    72  68  88 CALM      30.01S                  
SMYRNA         FAIR      74  71  91 SE3       30.04R                  
MURFREESBORO   SUNNY     75  72  88 S3        30.01S                  
COOKEVILLE     CLOUDY    73  70  88 SE5       30.06R                  
LIVINGSTON     SUNNY     72  68  88 S3        30.07R                  
GALLATIN       PTSUNNY   70  64  83 CALM      30.06R                  
CROSSVILLE     CLOUDY    68  65  90 SE5       30.12R                  
ROCKWOOD       CLOUDY    66  64  94 CALM      30.11R                  
$$

TNZ061-075-076-078-094-096-097-251400-
SOUTH MIDDLE TENNESSEE
  
CITY           SKY/WX    TMP DP  RH WIND       PRES   REMARKS
LAWRENCEBURG   CLOUDY    73  72  94 SE7       30.02S                  
LEWISBURG      CLOUDY    75  72  88 S8        30.02R                  
FAYETTEVILLE   CLOUDY    73  72  94 S9        30.04R                  
TULLAHOMA      CLOUDY    73  70  88 SE8       30.04R                  
WINCHESTER     CLOUDY    72  68  88 SE8       30.05R                  
MCMINNVILLE    CLOUDY    73  70  88 CALM      30.06R                  
COLUMBIA       MOSUNNY   75  75 100 VRB7      30.00S                  
SHELBYVILLE    PTSUNNY   75  72  88 SE6       30.03R                  
$$

TNZ017-018-042-046-047-251400-
NORTHEAST TENNESSEE
  
CITY           SKY/WX    TMP DP  RH WIND       PRES   REMARKS
TRI CITIES     CLOUDY    64  58  80 E3        30.15S                  
ELIZABETHTON   CLOUDY    68  57  68 E9        30.16R                  
GREENEVILLE    CLOUDY    66  59  77 NE5       30.13S                  
$$

TNZ012-013-036-069-073-074-251400-
CENTRAL EAST TENNESSEE
  
CITY           SKY/WX    TMP DP  RH WIND       PRES   REMARKS
KNOXVILLE      CLOUDY    69  61  75 NE8       30.08S                  
OAK RIDGE      CLOUDY    70  62  76 CALM      30.11R                  
DOWNTOWN KNOXV CLOUDY    70  64  83 CALM      30.10R                  
GATLINBURG     SUNNY     70  64  83 E5        30.09S                  
MORRISTOWN     CLOUDY    66  59  77 VRB6      30.11R                  
JACKSBORO      CLOUDY    68  63  83 NE5       30.15R                  
$$

TNZ083-085-099-251400-
SOUTHEAST TENNESSEE
  
CITY           SKY/WX    TMP DP  RH WIND       PRES   REMARKS
CHATTANOOGA    CLOUDY    72  64  76 S8        30.09R                  
DAYTON         CLOUDY    72  66  83 S7        30.08R                  
$$

SKY/WX REPORTED AS FAIR MEANS FEW OR NO CLOUDS BELOW
12 THOUSAND FEET.